Griddlers

Vá diretamente à ID do puzzle

Jogos e Brinquedos: Jogos: RPG: Dragon Quest

Selecione o puzzle por:
Resolvidos Question organizar por
Mostrar mais filtros >>>
puzzles por página
Página nº de 4
Resultado: 65 de 65
ID Descrição Autor Data Tamanho Pontos Popularidade Tempo Médio Resolvidos
126829 You May be a Dragonborn, But... rwkasten 19-08-2012 40x50x2 f-4 10.849 0:25:09
126828 You May be a Dragonborn, But... rwkasten 19-08-2012 40x50x2 f-4 24.282 0:18:12
126827 You May be a Dragonborn, But... rwkasten 19-08-2012 40x50x2 f-4 15.523 0:31:28
126826 You May be a Dragonborn, But... rwkasten 19-08-2012 40x50x2 f-4 1.604 75,46% 0:08:33
106540 DQM1 - BoxSlime bladewinters 10-03-2011 21x24x4 f-1 5.817 65,50% 0:10:57
106539 DQM1 - SlimeBorg bladewinters 10-03-2011 25x22x4 f-1 15.714 60,56% 0:17:19
106538 DQM2 - AngelSlime bladewinters 10-03-2011 35x19x6 f-1 21.205 70,24% 0:19:25
106537 DQM2 - TropicGel bladewinters 10-03-2011 30x29x6 f-1 29.741 76,00% 0:26:09
106536 DQM2 - MimeSlime bladewinters 10-03-2011 36x34x5 f-1 37.510 73,86% 0:40:40
106535 DQM2 - PearlGel bladewinters 10-03-2011 35x29x7 f-1 40.408 72,32% 0:23:20
106518 DQM1 - Slabbit bladewinters 09-03-2011 27x27x4 f-1 23.458 69,17% 0:19:30
106517 DQM1 - FangSlime bladewinters 09-03-2011 27x28x5 f-1 41.300 64,13% 0:24:59
106516 DQM1 - SpotKing bladewinters 09-03-2011 37x42x4 f-1 47.730 77,50% 0:37:15
106515 DQM1 - KingSlime bladewinters 09-03-2011 37x42x5 f-1 79.459 84,09% 0:28:40
106514 DQM1 - GoldSlime bladewinters 09-03-2011 45x47x5 f-1 182.677 81,82% 0:56:05
106495 DQM1 - SpotSlime bladewinters 08-03-2011 20x20x5 f-1 5.214 63,81% 0:08:32
106494 DQM1 - BubbleSlime bladewinters 08-03-2011 28x21x5 f-1 12.301 68,89% 0:12:22
106493 DQM1 - SlimeSnail bladewinters 08-03-2011 25x20x5 f-1 18.852 69,87% 0:17:48
106492 DQM1 - SlimeKnight bladewinters 08-03-2011 22x35x4 f-1 35.644 66,25% 0:41:00
106491 DQM1 - DrakSlime bladewinters 08-03-2011 35x25x5 f-1 36.541 58,75% 0:30:23
puzzles por página
Página nº de 4
Resultado: 65 de 65